Weather History for KMZZ - March, 2013

Change the Weather History Date:

Saturday, March 9, 2013

  Actual Average (KMIE) Record (KMIE)
Temperature  
Mean Temperature 36 °F 37 °F  
Max Temperature 45 °F 46 °F 77 °F (1974)
Min Temperature 28 °F 28 °F -7 °F (1984)
Degree Days  
Heating Degree Days 29 28  
Month to date heating degree days 266  
Since 1 July heating degree days 4649  
Cooling Degree Days 0 0  
Month to date cooling degree days 0  
Year to date cooling degree days 0  
Moisture  
Dew Point 28 °F    
Average Humidity 71    
Maximum Humidity 79    
Minimum Humidity 61    
Precipitation  
Precipitation 0.00 in 0.09 in 1.33 in (2006)
Month to date precipitation 0.79  
Year to date precipitation 5.33  
Sea Level Pressure  
Sea Level Pressure 30.19 in    
Wind  
Wind Speed 8 mph (SE)    
Max Wind Speed 14 mph    
Max Gust Speed 20 mph    
Visibility 8 miles    
Events Rain , Snow    
T = Trace of Precipitation, MM = Missing Value Source: NWS Daily Summary

Daily Weather History Graph

Daily Weather History Graph

Search for Another Location

Airport or City:

Trip Planner

Search our weather history database for the weather conditions in past years. The results will help you decide how hot, cold, wet, or windy it might be!

Date:

Astronomy

Mar. 09, 2013 Rise Set
Actual Time 7:03 AM EST 6:43 PM EST
Civil Twilight 6:36 AM EST 7:10 PM EST
Nautical Twilight 6:04 AM EST 7:42 PM EST
Astronomical Twilight 5:33 AM EST 8:14 PM EST
Moon 5:27 AM EST (3/9) 4:44 PM EST (3/9)
Length of Visible Light 12h 34m
Length of Day
11h 39m
Waning Crescent, 5% of the Moon is Illuminated
Mar 9
Waning Crescent
Mar 11
New
Mar 19
First Quarter
Mar 27
Full
Apr 3
Last Quarter

Hourly Weather History & Observations

Time (EST) Temp. Windchill Dew Point Humidity Pressure Visibility Wind Dir Wind Speed Gust Speed Precip Events Conditions
12:15 AM 29.3 °F 22.3 °F 21.7 °F 73% 30.38 in 7.0 mi ESE 6.9 mph - N/A Snow Light Snow
12:35 AM 29.7 °F 23.7 °F 21.9 °F 73% 30.37 in 7.0 mi ESE 5.8 mph - N/A Snow Light Snow
12:55 AM 29.5 °F 23.4 °F 21.9 °F 73% 30.36 in 7.0 mi ESE 5.8 mph - N/A Snow Light Snow
1:15 AM 28.8 °F 20.9 °F 22.1 °F 76% 30.35 in 10.0 mi ESE 8.1 mph - N/A Snow Light Snow
1:35 AM 29.5 °F 21.8 °F 22.3 °F 75% 30.35 in 7.0 mi SE 8.1 mph - N/A   Clear
1:55 AM 29.5 °F 21.8 °F 22.6 °F 76% 30.35 in 7.0 mi SE 8.1 mph - N/A Snow Light Snow
2:15 AM 29.7 °F 22.0 °F 22.8 °F 76% 30.34 in 7.0 mi ESE 8.1 mph - N/A Snow Light Snow
2:35 AM 29.8 °F 23.0 °F 23.0 °F 76% 30.33 in 5.0 mi SE 6.9 mph - N/A   Haze
2:55 AM 29.8 °F 23.0 °F 23.0 °F 76% 30.33 in 7.0 mi SE 6.9 mph - N/A Snow Light Snow
3:15 AM 29.5 °F 23.4 °F 22.8 °F 76% 30.32 in 10.0 mi SE 5.8 mph - N/A   Clear
3:35 AM 29.3 °F 24.3 °F 22.8 °F 77% 30.32 in 7.0 mi SE 4.6 mph - N/A Snow Light Snow
3:55 AM 29.1 °F 23.0 °F 23.0 °F 78% 30.31 in 10.0 mi ESE 5.8 mph - N/A   Clear
4:15 AM 29.7 °F 22.8 °F 23.2 °F 77% 30.29 in 10.0 mi ESE 6.9 mph - N/A   Clear
4:35 AM 29.7 °F 22.0 °F 23.5 °F 78% 30.29 in 7.0 mi ESE 8.1 mph - N/A Snow Light Snow
4:55 AM 30.2 °F 22.6 °F 23.9 °F 77% 30.30 in 7.0 mi SE 8.1 mph - N/A   Clear
5:15 AM 30.4 °F 22.2 °F 24.4 °F 79% 30.29 in 10.0 mi ESE 9.2 mph - N/A Snow Light Snow
5:35 AM 30.9 °F 22.8 °F 24.6 °F 77% 30.29 in 10.0 mi SE 9.2 mph - N/A   Clear
5:55 AM 30.6 °F 22.4 °F 24.4 °F 78% 30.29 in 10.0 mi SE 9.2 mph - N/A   Clear
6:15 AM 30.4 °F 22.2 °F 24.4 °F 79% 30.28 in 10.0 mi ESE 9.2 mph - N/A   Clear
6:35 AM 30.7 °F 22.0 °F 24.4 °F 77% 30.27 in 10.0 mi ESE 10.4 mph - N/A   Clear
6:55 AM 30.9 °F 21.7 °F 24.4 °F 77% 30.27 in 7.0 mi SE 11.5 mph - N/A   Clear
7:15 AM 31.3 °F 23.3 °F 25.0 °F 77% 30.28 in 4.0 mi SE 9.2 mph - N/A   Haze
7:35 AM 32.0 °F 23.0 °F 25.0 °F 75% 30.27 in 10.0 mi SE 11.5 mph - N/A   Clear
7:55 AM 32.0 °F 24.8 °F 25.3 °F 76% 30.28 in 3.0 mi SE 8.1 mph - N/A Snow Light Snow
8:15 AM 32.0 °F 24.2 °F 25.5 °F 77% 30.28 in 4.0 mi SE 9.2 mph - N/A   Haze
8:35 AM 32.0 °F 25.6 °F 25.9 °F 78% 30.29 in 5.0 mi SE 6.9 mph - N/A   Haze
8:55 AM 32.4 °F 25.3 °F 26.1 °F 78% 30.29 in 7.0 mi SSE 8.1 mph - N/A   Mostly Cloudy
9:15 AM 32.7 °F 27.3 °F 26.4 °F 78% 30.29 in 5.0 mi SE 5.8 mph - N/A Snow Light Snow
9:35 AM 33.4 °F 28.1 °F 27.0 °F 77% 30.29 in 7.0 mi SE 5.8 mph - N/A   Scattered Clouds
9:55 AM 34.5 °F 26.7 °F 27.3 °F 75% 30.28 in 7.0 mi SE 10.4 mph - N/A   Scattered Clouds
10:15 AM 35.4 °F 26.8 °F 27.1 °F 72% 30.26 in 7.0 mi SE 12.7 mph - N/A   Clear
10:35 AM 36.1 °F 28.2 °F 27.3 °F 70% 30.25 in 5.0 mi SSE 11.5 mph 16.1 mph N/A Rain Light Rain
10:55 AM 37.0 °F 31.0 °F 27.5 °F 68% 30.27 in 7.0 mi SSE 8.1 mph - N/A   Clear
11:15 AM 38.5 °F 31.1 °F 28.0 °F 66% 30.26 in 10.0 mi SSE 11.5 mph 19.6 mph N/A   Mostly Cloudy
11:35 AM 39.2 °F 33.6 °F 27.9 °F 64% 30.25 in 10.0 mi SSE 8.1 mph - N/A   Overcast
11:55 AM 40.1 °F 34.1 °F 28.6 °F 63% 30.24 in 7.0 mi SSE 9.2 mph - N/A   Mostly Cloudy
12:15 PM 40.3 °F 33.4 °F 27.9 °F 61% 30.24 in 7.0 mi SSE 11.5 mph - N/A   Scattered Clouds
12:35 PM 40.6 °F 34.8 °F 28.4 °F 62% 30.22 in 10.0 mi SE 9.2 mph - N/A   Clear
12:55 PM 41.0 °F 34.3 °F 28.6 °F 61% 30.21 in 10.0 mi SE 11.5 mph - N/A   Clear
1:15 PM 40.8 °F 34.1 °F 29.7 °F 64% 30.19 in 10.0 mi SE 11.5 mph - N/A   Clear
1:35 PM 41.4 °F 34.3 °F 29.3 °F 62% 30.18 in 7.0 mi ESE 12.7 mph - N/A   Clear
1:55 PM 41.5 °F 35.0 °F 29.7 °F 63% 30.16 in 7.0 mi SE 11.5 mph - N/A   Clear
2:15 PM 41.9 °F 34.6 °F 30.0 °F 63% 30.16 in 10.0 mi SE 13.8 mph 17.3 mph N/A   Clear
2:35 PM 42.4 °F 35.3 °F 30.0 °F 61% 30.14 in 10.0 mi SE 13.8 mph - N/A   Clear
2:55 PM 42.6 °F 36.8 °F 30.6 °F 62% 30.14 in 10.0 mi SE 10.4 mph - N/A   Clear
3:15 PM 43.2 °F 37.0 °F 31.6 °F 64% 30.12 in 10.0 mi SE 11.5 mph - N/A   Clear
3:35 PM 43.0 °F 37.2 °F 31.8 °F 65% 30.12 in 10.0 mi SE 10.4 mph - N/A   Scattered Clouds
3:55 PM 43.3 °F 38.1 °F 32.0 °F 64% 30.11 in 7.0 mi SSE 9.2 mph - N/A   Mostly Cloudy
4:15 PM 43.3 °F 38.1 °F 32.4 °F 65% 30.09 in 5.0 mi SE 9.2 mph - N/A Rain Light Rain
4:35 PM 43.3 °F 38.1 °F 32.7 °F 66% 30.08 in 10.0 mi SE 9.2 mph - N/A   Mostly Cloudy
4:55 PM 42.8 °F 38.0 °F 32.9 °F 68% 30.08 in 7.0 mi SE 8.1 mph - N/A Rain Light Rain
5:15 PM 42.8 °F 37.5 °F 32.5 °F 67% 30.08 in 10.0 mi SE 9.2 mph - N/A   Overcast
5:35 PM 42.6 °F 37.8 °F 32.4 °F 67% 30.08 in 7.0 mi ESE 8.1 mph - N/A Rain Light Rain
5:55 PM 41.4 °F 35.7 °F 32.9 °F 72% 30.07 in 7.0 mi SE 9.2 mph - N/A   Overcast
6:15 PM 41.2 °F 35.5 °F 32.7 °F 72% 30.07 in 7.0 mi SE 9.2 mph - N/A   Overcast
6:35 PM 40.8 °F 34.5 °F 32.5 °F 72% 30.06 in 5.0 mi SE 10.4 mph - N/A   Haze
6:55 PM 40.8 °F 34.5 °F 32.5 °F 72% 30.05 in 10.0 mi SE 10.4 mph - N/A   Overcast
7:15 PM 40.6 °F 34.8 °F 32.5 °F 73% 30.05 in 10.0 mi SE 9.2 mph - N/A   Overcast
7:35 PM 40.3 °F 34.4 °F 32.5 °F 74% 30.04 in 10.0 mi SE 9.2 mph - N/A   Mostly Cloudy
7:55 PM 39.6 °F 33.0 °F 32.4 °F 75% 30.04 in 7.0 mi SE 10.4 mph - N/A   Clear
8:15 PM 40.1 °F 34.7 °F 32.2 °F 73% 30.04 in 7.0 mi SE 8.1 mph - N/A   Clear
8:35 PM 41.0 °F 36.4 °F 32.2 °F 71% 30.02 in 7.0 mi SE 6.9 mph - N/A   Clear
8:55 PM 41.2 °F 36.0 °F 32.4 °F 71% 30.01 in 10.0 mi SE 8.1 mph - N/A   Clear
9:15 PM 41.5 °F 35.9 °F 32.0 °F 69% 30.00 in 10.0 mi SSE 9.2 mph - N/A   Clear
9:35 PM 42.3 °F 37.3 °F 32.0 °F 67% 30.00 in 7.0 mi SSE 8.1 mph - N/A   Clear
9:55 PM 42.6 °F 36.8 °F 32.0 °F 66% 29.99 in 10.0 mi SSE 10.4 mph - N/A   Scattered Clouds
10:15 PM 43.0 °F 36.8 °F 32.0 °F 65% 29.99 in 10.0 mi SSE 11.5 mph - N/A   Mostly Cloudy
10:35 PM 43.2 °F 37.9 °F 32.0 °F 65% 29.99 in 10.0 mi SSE 9.2 mph - N/A   Scattered Clouds
10:55 PM 43.0 °F 37.2 °F 32.0 °F 65% 29.98 in 7.0 mi SSE 10.4 mph - N/A   Scattered Clouds
11:15 PM 43.3 °F 38.1 °F 32.0 °F 64% 29.97 in 5.0 mi SSE 9.2 mph - N/A   Unknown
11:35 PM 44.1 °F 39.0 °F 32.0 °F 63% 29.97 in 7.0 mi SSE 9.2 mph - N/A   Mostly Cloudy
11:55 PM 44.2 °F 38.8 °F 32.0 °F 62% 29.96 in 7.0 mi South 10.4 mph - N/A   Overcast